• En España
  • Lista de países
  • Para 7 días
  • Temperatura del agua
  • Mapa Satelital
  • El tiempo en el mapa
  • Informadores
  • user-avatar
    Iniciar sesión

    Tiempo cada hora Mauritius

    Hoy, 20 Octubre, Sábado

    Tiempo Temperatura Precipitaciones Viento Presión Humedad
    00:00 +22°C° 0 mm 4 mps 724 mmHg 85%
    01:00 +22°C° 0 mm 4 mps 724 mmHg 85%
    02:00 +22°C° 0 mm 4 mps 724 mmHg 86%
    03:00 +22°C° 0 mm 5 mps 724 mmHg 86%
    04:00 +22°C° 0 mm 5 mps 724 mmHg 86%
    05:00 +22°C° 0.1 mm 4 mps 724 mmHg 86%
    06:00 +22°C° 0.1 mm 4 mps 724 mmHg 85%
    07:00 +22°C° 0.1 mm 4 mps 724 mmHg 84%
    08:00 +23°C° 0.1 mm 5 mps 725 mmHg 80%
    09:00 +25°C° 0.1 mm 5 mps 725 mmHg 76%
    10:00 +26°C° 0.1 mm 5 mps 725 mmHg 72%
    11:00 +26°C° 0.5 mm 5 mps 725 mmHg 71%
    12:00 +26°C° 0.5 mm 5 mps 725 mmHg 71%
    13:00 +26°C° 0.5 mm 5 mps 725 mmHg 70%
    14:00 +26°C° 1.1 mm 4 mps 724 mmHg 71%
    15:00 +26°C° 1.1 mm 4 mps 724 mmHg 71%
    16:00 +25°C° 1.1 mm 3 mps 724 mmHg 72%
    17:00 +25°C° 0.5 mm 3 mps 724 mmHg 74%
    18:00 +25°C° 0.5 mm 2 mps 724 mmHg 77%
    19:00 +24°C° 0.5 mm 2 mps 725 mmHg 79%
    20:00 +24°C° 0.1 mm 2 mps 725 mmHg 81%
    21:00 +24°C° 0.1 mm 2 mps 725 mmHg 82%
    22:00 +24°C° 0.1 mm 2 mps 726 mmHg 84%
    23:00 +24°C° 0 mm 2 mps 725 mmHg 84%

    Mañana, 21 Octubre, Domingo

    Tiempo Temperatura Precipitaciones Viento Presión Humedad
    00:00 +24°C° 0 mm 2 mps 725 mmHg 84%
    01:00 +22°C° 0 mm 3 mps 725 mmHg 85%
    02:00 +22°C° 0 mm 3 mps 725 mmHg 85%
    03:00 +22°C° 0 mm 3 mps 724 mmHg 86%
    04:00 +22°C° 0 mm 4 mps 724 mmHg 87%
    05:00 +22°C° 0 mm 4 mps 725 mmHg 87%
    06:00 +22°C° 0 mm 4 mps 725 mmHg 86%
    07:00 +22°C° 0 mm 4 mps 725 mmHg 85%
    08:00 +23°C° 0.1 mm 5 mps 725 mmHg 82%
    09:00 +25°C° 0.1 mm 5 mps 725 mmHg 78%
    10:00 +26°C° 0.1 mm 5 mps 725 mmHg 74%
    11:00 +26°C° 0.2 mm 5 mps 725 mmHg 73%
    12:00 +26°C° 0.2 mm 5 mps 725 mmHg 72%
    13:00 +27°C° 0.2 mm 5 mps 725 mmHg 70%
    14:00 +27°C° 0.1 mm 5 mps 724 mmHg 71%
    15:00 +26°C° 0.1 mm 6 mps 724 mmHg 72%
    16:00 +26°C° 0.1 mm 6 mps 724 mmHg 73%
    17:00 +26°C° 0 mm 6 mps 724 mmHg 75%
    18:00 +25°C° 0 mm 5 mps 724 mmHg 78%
    19:00 +25°C° 0 mm 5 mps 724 mmHg 81%
    20:00 +23°C° 0 mm 5 mps 725 mmHg 82%
    21:00 +23°C° 0 mm 5 mps 725 mmHg 84%
    22:00 +23°C° 0 mm 5 mps 725 mmHg 85%
    23:00 +23°C° 0 mm 5 mps 725 mmHg 86%

    Pasado mañana, 22 Octubre, Lunes

    Tiempo Temperatura Precipitaciones Viento Presión Humedad
    00:00 +23°C° 0 mm 5 mps 725 mmHg 86%
    01:00 +22°C° 0 mm 6 mps 724 mmHg 86%
    02:00 +23°C° 0 mm 6 mps 724 mmHg 86%
    03:00 +23°C° 0 mm 6 mps 724 mmHg 85%
    04:00 +23°C° 0 mm 6 mps 724 mmHg 85%
    05:00 +23°C° 0 mm 6 mps 724 mmHg 84%
    06:00 +23°C° 0 mm 6 mps 724 mmHg 84%
    07:00 +23°C° 0 mm 5 mps 725 mmHg 83%
    08:00 +23°C° 0 mm 6 mps 725 mmHg 81%
    09:00 +24°C° 0 mm 6 mps 725 mmHg 79%
    10:00 +24°C° 0 mm 6 mps 725 mmHg 77%
    11:00 +26°C° 0 mm 6 mps 725 mmHg 76%
    12:00 +26°C° 0 mm 6 mps 725 mmHg 74%
    13:00 +26°C° 0 mm 6 mps 724 mmHg 73%
    14:00 +26°C° 0.1 mm 6 mps 724 mmHg 73%
    15:00 +26°C° 0.1 mm 6 mps 724 mmHg 74%
    16:00 +26°C° 0.1 mm 6 mps 724 mmHg 74%
    17:00 +24°C° 0.4 mm 6 mps 724 mmHg 77%
    18:00 +25°C° 0.4 mm 5 mps 724 mmHg 80%
    19:00 +23°C° 0.4 mm 5 mps 725 mmHg 82%
    20:00 +23°C° 0.6 mm 5 mps 725 mmHg 83%
    21:00 +23°C° 0.6 mm 5 mps 726 mmHg 83%
    22:00 +23°C° 0.6 mm 4 mps 726 mmHg 83%
    23:00 +22°C° 1 mm 4 mps 726 mmHg 86%

    23 Octubre, Martes

    Tiempo Temperatura Precipitaciones Viento Presión Humedad
    00:00 +22°C° 1 mm 4 mps 725 mmHg 88%
    01:00 +22°C° 1 mm 4 mps 725 mmHg 90%
    02:00 +21°C° 0.5 mm 4 mps 725 mmHg 90%
    03:00 +21°C° 0.5 mm 5 mps 725 mmHg 90%
    04:00 +21°C° 0.5 mm 6 mps 725 mmHg 90%
    05:00 +21°C° 0.4 mm 6 mps 725 mmHg 88%
    06:00 +21°C° 0.4 mm 6 mps 726 mmHg 86%
    07:00 +21°C° 0.4 mm 6 mps 726 mmHg 84%
    08:00 +22°C° 0 mm 6 mps 726 mmHg 81%
    09:00 +22°C° 0 mm 6 mps 727 mmHg 79%
    10:00 +22°C° 0 mm 6 mps 727 mmHg 76%
    11:00 +22°C° 0 mm 6 mps 727 mmHg 74%
    12:00 +23°C° 0 mm 6 mps 727 mmHg 73%
    13:00 +23°C° 0 mm 7 mps 726 mmHg 71%
    14:00 +23°C° 0 mm 7 mps 726 mmHg 69%
    15:00 +22°C° 0 mm 7 mps 726 mmHg 66%
    16:00 +22°C° 0 mm 7 mps 726 mmHg 63%
    17:00 +22°C° 0 mm 7 mps 726 mmHg 65%
    18:00 +22°C° 0 mm 7 mps 727 mmHg 66%
    19:00 +21°C° 0 mm 7 mps 727 mmHg 68%
    20:00 +21°C° 0 mm 7 mps 727 mmHg 70%
    21:00 +21°C° 0 mm 8 mps 727 mmHg 72%
    22:00 +21°C° 0 mm 8 mps 727 mmHg 75%
    23:00 +21°C° 0 mm 8 mps 727 mmHg 75%

    24 Octubre, Miércoles

    Tiempo Temperatura Precipitaciones Viento Presión Humedad
    00:00 +21°C° 0 mm 8 mps 727 mmHg 75%
    01:00 +20°C° 0 mm 8 mps 726 mmHg 75%
    02:00 +20°C° 0 mm 8 mps 726 mmHg 74%
    03:00 +20°C° 0 mm 8 mps 726 mmHg 73%
    04:00 +19°C° 0 mm 9 mps 726 mmHg 72%
    05:00 +20°C° 0 mm 8 mps 726 mmHg 72%
    06:00 +20°C° 0 mm 8 mps 727 mmHg 72%
    07:00 +20°C° 0 mm 8 mps 727 mmHg 71%
    08:00 +21°C° 0 mm 8 mps 727 mmHg 69%
    09:00 +21°C° 0 mm 8 mps 727 mmHg 67%
    10:00 +21°C° 0 mm 8 mps 728 mmHg 66%
    11:00 +22°C° 0 mm 8 mps 727 mmHg 65%
    12:00 +22°C° 0 mm 7 mps 727 mmHg 65%
    13:00 +22°C° 0 mm 7 mps 726 mmHg 64%
    14:00 +22°C° 0 mm 7 mps 726 mmHg 65%
    15:00 +22°C° 0 mm 7 mps 726 mmHg 66%
    16:00 +22°C° 0 mm 7 mps 726 mmHg 67%
    17:00 +21°C° 0 mm 7 mps 726 mmHg 69%
    18:00 +21°C° 0 mm 7 mps 726 mmHg 70%
    19:00 +21°C° 0 mm 7 mps 726 mmHg 72%
    20:00 +20°C° 0 mm 7 mps 727 mmHg 72%
    21:00 +20°C° 0 mm 7 mps 727 mmHg 72%
    22:00 +20°C° 0 mm 6 mps 727 mmHg 73%
    23:00 +20°C° 0 mm 6 mps 727 mmHg 73%

    25 Octubre, Jueves

    Tiempo Temperatura Precipitaciones Viento Presión Humedad
    00:00 +20°C° 0 mm 6 mps 726 mmHg 73%
    01:00 +20°C° 0 mm 6 mps 726 mmHg 73%
    02:00 +20°C° 0.1 mm 5 mps 726 mmHg 74%
    03:00 +20°C° 0.1 mm 5 mps 726 mmHg 74%
    04:00 +20°C° 0.1 mm 5 mps 725 mmHg 75%
    05:00 +20°C° 0 mm 5 mps 726 mmHg 74%
    06:00 +20°C° 0 mm 5 mps 726 mmHg 74%
    07:00 +20°C° 0 mm 5 mps 726 mmHg 74%
    08:00 +21°C° 0 mm 5 mps 726 mmHg 72%
    09:00 +21°C° 0 mm 5 mps 726 mmHg 71%
    10:00 +22°C° 0 mm 5 mps 726 mmHg 69%
    11:00 +22°C° 0 mm 5 mps 726 mmHg 68%
    12:00 +22°C° 0 mm 5 mps 725 mmHg 67%
    13:00 +23°C° 0 mm 5 mps 725 mmHg 66%
    14:00 +22°C° 0 mm 5 mps 725 mmHg 66%
    15:00 +22°C° 0 mm 4 mps 725 mmHg 66%
    16:00 +22°C° 0 mm 4 mps 724 mmHg 66%
    17:00 +22°C° 0 mm 4 mps 725 mmHg 67%
    18:00 +22°C° 0 mm 4 mps 725 mmHg 67%
    19:00 +21°C° 0 mm 4 mps 725 mmHg 68%
    20:00 +21°C° 0 mm 4 mps 725 mmHg 68%
    21:00 +21°C° 0 mm 4 mps 725 mmHg 68%
    22:00 +21°C° 0 mm 4 mps 725 mmHg 68%
    23:00 +21°C° 0 mm 4 mps 725 mmHg 68%
    Mostrar más